Location: Unspecified
(0.0000°N, 0.0000°E)
Time: 18:22:20
(UTC+00:00)

STARLINK 1050 - Pass Details

Date: 21 January 2020
Orbit: 548 x 551 km, 53.0° (Epoch: 17 January)

Event Time Altitude Azimuth Distance (km) Brightness Sun altitude
Rises 04:36:11 0° 197° (SSW) 2,713 7.2 -22.2°
Reaches altitude 10° 04:38:37 10° 186° (S) 1,817 6.4 -21.6°
Maximum altitude 04:42:15 30° 124° (SE) 998 5.6 -20.8°
Drops below altitude 10° 04:45:53 10° 62° (ENE) 1,810 6.8 -20.0°
Sets 04:48:18 0° 51° (NE) 2,700 7.6 -19.4°
